SB KEPS @ AMSAT $ORB08332.N 2Line Orbital Elements 08332.AMSAT
HR AMSAT ORBITAL ELEMENTS FOR AMATEUR SATELLITES IN NASA FORMAT FROM WA5QGD FORT WORTH,TX November 27, 2008 Send Subscribe/unsubscribe to KEPS at http://www.amsat.org/mailman/listinfo/keps BID: ORB08332.N
DECODE 2-LINE ELSETS WITH THE FOLLOWING KEY: 1 AAAAAU 00 0 0 BBBBB.BBBBBBBB .CCCCCCCC 00000-0 00000-0 0 DDDZ 2 AAAAA EEE.EEEE FFF.FFFF GGGGGGG HHH.HHHH III.IIII JJ.JJJJJJJJKKKKKZ KEY: A-CATALOGNUM B-EPOCHTIME C-DECAY D-ELSETNUM E-INCLINATION F-RAAN G-ECCENTRICITY H-ARGPERIGEE I-MNANOM J-MNMOTION K-ORBITNUM Z-CHECKSUM
TO ALL RADIO AMATEURS BT
AO-07 1 07530U 74089B 08332.01892997 -.00000027 00000-0 10000-3 0 3374 2 07530 101.4496 357.9654 0011751 304.4314 055.5643 12.53574594557386 AO-10 1 14129U 83058B 08329.87329138 .00000102 00000-0 10000-3 0 5931 2 14129 026.0360 184.3129 5958096 176.1935 192.0627 02.05868276191415 UO-11 1 14781U 84021B 08331.82102495 .00000371 00000-0 56662-4 0 8238 2 14781 098.1367 008.1257 0008080 270.7762 089.2534 14.79680387327902 RS-15 1 23439U 94085A 08329.45702810 -.00000039 00000-0 10000-3 0 1614 2 23439 064.8172 235.8807 0145645 091.6503 270.1108 11.27552774573031 FO-29 1 24278U 96046B 08332.18743250 .00000030 00000-0 64523-4 0 9115 2 24278 098.5775 227.0619 0351175 153.4766 208.4841 13.52940258606432 SO-33 1 25509U 98061B 08331.56367696 .00000081 00000-0 50424-5 0 3328 2 25509 031.4315 118.2113 0354666 006.8425 353.6878 14.28231279526846 AO-40 1 26609U 00072B 08330.35770983 -.00000131 00000-0 10000-3 0 1585 2 26609 008.1690 047.0418 7938854 148.5374 303.8930 01.25586293 37062 VO-52 1 28650U 05017B 08332.38166184 -.00000122 00000-0 -87722-5 0 907 2 28650 097.7716 034.3426 0026602 330.6802 029.2877 14.81524695192765 PO-63 1 29712U 07001D 08332.47047290 .00000529 00000-0 76007-4 0 67 2 29712 097.8581 027.4353 0013495 207.7991 152.2505 14.80349708101626 AO-16 1 20439U 90005D 08330.98835895 .00000016 00000-0 21357-4 0 4726 2 20439 098.2520 302.9556 0011878 057.0515 303.1811 14.31809123984071 LO-19 1 20442U 90005G 08332.05694336 .00000016 00000-0 21106-4 0 3971 2 20442 098.2177 311.9842 0012719 051.7343 308.4983 14.32046677984386 AO-27 1 22825U 93061C 08331.89720819 .00000019 00000-0 24098-4 0 1165 2 22825 098.4081 286.0046 0008872 135.8167 224.3730 14.29252733791010 IO-26 1 22826U 93061D 08332.06288303 .00000000 00000-0 16448-4 0 8317 2 22826 098.4015 287.0024 0009498 132.1713 228.0286 14.29502730791132 GO-32 1 25397U 98043D 08332.01164181 -.00000139 00000-0 -43556-4 0 7572 2 25397 098.3478 358.9906 0002039 109.9751 250.1644 14.23150842539372 NO-44 1 26931U 01043C 08332.16142428 -.00000053 00000-0 11682-4 0 366 2 26931 067.0524 224.8079 0006540 255.1211 104.9173 14.29539134373707 SO-50 1 27607U 02058C 08329.27280826 .00000091 00000-0 35976-4 0 7525 2 27607 064.5594 287.4455 0084175 248.1621 111.0452 14.71398009318526 CO-55 1 27844U 03031E 08331.71372129 .00000027 00000-0 33077-4 0 4504 2 27844 098.7165 337.7325 0010269 013.1283 347.0149 14.20608464280518 CO-57 1 27848U 03031J 08331.59288064 .00000018 00000-0 28691-4 0 4010 2 27848 098.7168 336.6839 0010320 015.3749 344.7728 14.20414953280461 AO-51 1 28375U 04025K 08331.92145451 .00000017 00000-0 17611-4 0 2533 2 28375 098.0603 347.2592 0085069 019.5075 340.9337 14.40625769231830 CO-56 1 28941U 06005C 08332.48461418 .00058358 34593-5 34438-3 0 5895 2 28941 098.1217 106.7342 0137124 164.1998 196.3694 15.66077361155510 CP3 1 31128U 07012M 08331.07288797 -.00000047 00000-0 00000 0 0 4916 2 31128 098.0220 027.4975 0102747 193.5490 166.2948 14.51994960 85427 CP4 1 31132U 07012Q 08331.16534127 -.00000003 00000-0 97758-5 0 4680 2 31132 098.0236 030.5511 0085772 184.5021 175.5415 14.55160743 85507 CO-65 1 32785U 08021C 08332.44373972 .00000137 00000-0 24354-4 0 2212 2 32785 097.9750 031.7851 0014480 330.7311 029.3094 14.81419846 31573 NOAA-10 1 16969U 86073A 08332.48484862 -.00000001 00000-0 17559-4 0 3868 2 16969 098.7111 354.0402 0013126 066.3614 293.8945 14.27373840154736 NOAA-11 1 19531U 88089A 08331.88764319 -.00000174 00000-0 -67346-4 0 4116 2 19531 098.7944 058.9093 0011343 328.8733 031.1766 14.14881105 40913 NOAA-12 1 21263U 91032A 08331.54741317 .00000026 00000-0 30061-4 0 9213 2 21263 098.7715 333.5306 0012938 018.0434 342.1202 14.25555845911525 MET-3/5 1 21655U 91056A 08331.84336740 .00000051 00000-0 10000-3 0 5200 2 21655 082.5551 349.4637 0013103 332.5031 027.5396 13.17017587830999 MET-2/21 1 22782U 93055A 08331.55496857 .00000099 00000-0 76130-4 0 3114 2 22782 082.5480 342.7643 0022037 191.0801 168.9891 13.83631596769585 OKEAN-4 1 23317U 94066A 08332.44812455 .00000364 00000-0 42077-4 0 7580 2 23317 082.5376 162.7406 0021178 312.9177 047.0278 14.82655155762470 NOAA-14 1 23455U 94089A 08331.33579295 .00000218 00000-0 13881-3 0 4043 2 23455 098.9324 043.5402 0009974 049.7601 310.4484 14.13753100717262 NOAA-15 1 25338U 98030A 08332.49945472 .00000134 00000-0 76026-4 0 7138 2 25338 098.5682 320.3244 0009815 287.9372 072.0739 14.24734785548055 RESURS 1 25394U 98043A 08331.54193665 -.00000028 00000-0 55688-5 0 798 2 25394 098.3652 007.9343 0002408 078.2604 281.8850 14.24175702539557 FENGYUN1 1 25730U 99025A 08332.24258715 .00000708 00000-0 44138-3 0 6245 2 25730 098.7395 302.6397 0022619 062.5577 297.7890 14.07875336491901 OKEAN-0 1 25860U 99039A 08332.02126497 .00000031 00000-0 12041-4 0 5349 2 25860 097.7655 315.5046 0001736 080.6121 279.5281 14.73546305503371 NOAA-16 1 26536U 00055A 08332.48370027 -.00000034 00000-0 65577-5 0 1860 2 26536 099.1699 325.3525 0011144 125.2894 234.9346 14.12502477421825 NOAA-17 1 27453U 02032A 08332.34738689 .00000229 00000-0 11822-3 0 1927 2 27453 098.5168 032.0831 0011622 357.4434 002.6709 14.24021298334028 NOAA-18 1 28654U 05018A 08331.48831010 -.00000192 00000-0 -81945-4 0 6799 2 28654 098.8856 270.5382 0013809 212.8138 147.2174 14.11210046181369 HUBBLE 1 20580U 90037B 08332.17931590 .00000311 00000-0 11234-4 0 2718 2 20580 028.4701 340.1043 0003531 311.8479 048.1804 15.00432063819488 PO-34 1 25520U 98064B 08331.93223830 .00000394 00000-0 96079-5 0 1305 2 25520 028.4596 169.1667 0005206 256.9313 103.0700 15.17263367557906 ISS 1 25544U 98067A 08331.55056713 .00040469 00000-0 31141-3 0 7340 2 25544 051.6445 264.1420 0007009 031.6634 301.7668 15.71561244574075 CO-58 1 28895U 05043F 08331.71675471 .00000047 00000-0 19433-4 0 1792 2 28895 098.0816 221.7151 0016794 261.2238 098.7093 14.59718157164191 FALCON 1 30776U 07006E 08331.91804740 .00000344 00000-0 28058-4 0 4470 2 30776 035.4341 246.4866 0001801 329.5112 030.5492 15.03112726 94648 MAST 1 31126U 07012K 08332.19238511 -.00000028 00000-0 42982-5 0 4704 2 31126 098.0195 029.9383 0094643 186.0760 173.9316 14.53459918 85692 CAPE1 1 31130U 07012P 08331.82390129 .00000048 00000-0 21876-4 0 4633 2 31130 098.0219 028.2251 0102799 191.1468 168.7450 14.52011370 85320 COMPASS 1 32787U 08021E 08332.16447954 .00000233 00000-0 36573-4 0 2117 2 32787 097.9700 031.4158 0015257 332.7640 027.2771 14.81503979 31533 AAUSAT2 1 32788U 08021F 08332.14864031 .00000544 00000-0 75928-4 0 2117 2 32788 097.9723 031.4303 0014850 334.5477 025.5005 14.81619315 31530 DO-64 1 32789U 08021G 08332.23162634 .00000547 00000-0 76511-4 0 2222 2 32789 097.9745 031.5702 0015079 331.6920 028.3468 14.81543164 31547 CO-66 1 32791U 08021J 08331.23956857 .00000030 00000-0 10769-4 0 2042 2 32791 097.9740 030.5215 0015679 334.0665 025.9758 14.81349248 31364 RS-30 1 32953U 08025A 08331.67752604 .00000010 00000-0 00000 0 0 1687 2 32953 082.5039 022.5426 0017812 259.0851 100.8225 12.42998359 23231 /EX